Location: C.E.K. Mees Observatory
(42.7003°N, 77.4088°W)
Time: 00:31:27
(UTC-05:00)

Envisat - Pass Details

Date: 19 November 2019
Orbit: 764 x 766 km, 98.1° (Epoch: 15 December)

Event Time Altitude Azimuth Distance (km) Brightness Sun altitude
Rises 06:00:47 0° 27° (NNE) 3,239 6.4 -12.0°
Reaches altitude 10° 06:03:36 10° 42° (NE) 2,307 5.8 -11.5°
Maximum altitude 06:07:32 22° 93° (E) 1,612 5.7 -10.8°
Drops below altitude 10° 06:11:26 10° 144° (SE) 2,293 6.3 -10.1°
Sets 06:14:13 0° 159° (SSE) 3,214 6.8 -9.7°
